Location: Allie Creek
(37.5926°N, 89.8526°W)
Time: 12:06:56
(UTC+00:00)

Cosmos 2082 Rocket - Pass Details

Date: 26 September 2023
Orbit: 834 x 852 km, 71.0° (Epoch: 28 November)

Event Time Altitude Azimuth Distance (km) Brightness Sun altitude
Exits shadow 09:30:49 13° 333° (NNW) 2,265 4.4 -27.9°
Drops below altitude 10° 09:32:04 10° 345° (NNW) 2,492 4.7 -27.6°
Sets 09:35:35 0° 7° (N) 3,426 5.7 -27.0°
